Tracking 19854 objects as of 22-Sep-2019
HD Live streaming from Space Station
objects crossing your sky now

FENGYUN 1C DEB

Track FENGYUN 1C DEB now!
10-day predictions


NORAD ID: 33709
Int'l Code: 1999-025DGW
Perigee: 513.5 km
Apogee: 566.9 km
Inclination: 99.0 °
Period: 95.3 minutes
Semi major axis: 6911 km
RCS: 0.0093 m2 (small)
Launch date: May 10, 1999
Source: People's Republic of China (PRC)
Launch site: Taiyaun Space Center, China (TSC)

Note: This is SATELLITE DEBRIS
aabbcc
Your satellite tracking list
Your tracking list is empty




NASA's NSSDC Master Catalog

Two Line Element Set (TLE):
1 33709U 99025DGW 19263.17836882  .00006907  00000-0  41099-3 0  9999
2 33709  99.0395  45.5647 0038649 256.0975 103.5950 15.11040700613343
Source of the keplerian elements: AFSPC